Location: Codford Saint Peter
(51.1597°N, 2.0531°W)
Time: 18:31:18
(UTC+00:00)

Envisat - Pass Details

Date: 03 February 2022
Orbit: 764 x 765 km, 98.2° (Epoch: 19 May)

Event Time Altitude Azimuth Distance (km) Brightness Sun altitude
Rises 04:18:05 0° 21° (NNE) 3,244 6.7 -32.1°
Reaches altitude 10° 04:20:38 10° 31° (NNE) 2,313 6.0 -31.7°
Maximum altitude 04:25:11 32° 94° (E) 1,302 4.6 -31.0°
Drops below altitude 10° 04:29:42 10° 157° (SSE) 2,299 5.6 -30.3°
Sets 04:32:13 0° 168° (SSE) 3,221 6.3 -29.9°
